sat.trackr.live / text

‹ back to catalog

STARLINK-1392

NORAD 45677 · 2020-035W

PAYLOAD ACTIVE UNKNOWN

§ Identity

Operator
Country
US
Launch date
2020-06-04
Launch site
AFETR
Launch vehicle
Mass (kg)
RCS (m²)

Purposes: comms

External: N2YO · Heavens-Above · Gunter

§ Orbital elements

Epoch: 2026-09-20T04:28:19.966944Z

Period
93.04 min
Inclination
53.1488°
Eccentricity
0.0001565
Mean motion
15.47719868 rev/d
Perigee alt
422.3 km
Apogee alt
424.5 km
Semi-major
6,801.5 km
B*
9.0846e-4
RAAN
229.3596°
Arg perigee
70.3884°
Mean anomaly
289.7293°
Rev number
34,870

§ Raw data

STARLINK-13921 45677U 20035W   26263.18634221  .00047645  00000+0  90846-3 0  99902 45677  53.1488 229.3596 0001565  70.3884 289.7293 15.47719868348701

JSON: /api/v1/satellites/45677 · /tle

For live sub-satellite position, see the globe view (requires WebGL).

§ Visibility from observer

Set your observer location to see the next 7 days of passes ≥ 10°. The values pass through the URL so the page stays shareable.

No JS? Fill the form by hand. The geolocation button needs JavaScript.